�v������,���r���O(���x),�����t���O,���r���O(���x),�����t���O,��1(���x),�����t���O,��2���x),�����t���O,�������x,�����t���O,�C�ۑ�(���x),�����t���O,�C�ۑ�(���x),�����t���O
5/1/2003 0:00,24.4,0,67.6,0,22,0,22.5,0,17.7,0,12.9,0,83.8,0
5/1/2003 0:15,24.2,0,65.8,0,21.9,0,22.5,0,17.7,0,12.9,0,84.3,0
5/1/2003 0:30,24.2,0,66.7,0,21.9,0,22.4,0,17.8,0,12.8,0,84.8,0
5/1/2003 0:45,23.9,0,65.5,0,21.8,0,22.4,0,17.3,0,12.8,0,85.3,0
5/1/2003 1:00,23.6,0,65.6,0,21.8,0,22.4,0,17.3,0,12.8,0,85.8,0
5/1/2003 1:15,23.4,0,65.6,0,21.7,0,22.4,0,17.4,0,12.7,0,85.8,0
5/1/2003 1:30,23.2,0,65.6,0,21.7,0,22.4,0,17.4,0,12.6,0,85.8,0
5/1/2003 1:45,23.1,0,65.7,0,21.6,0,22.3,0,17.5,0,12.6,0,85.8,0
5/1/2003 2:00,22.9,0,65.7,0,21.5,0,22.3,0,17.5,0,12.5,0,85.8,0
5/1/2003 2:15,22.7,0,65.7,0,21.4,0,22.4,0,17.6,0,12.4,0,86.1,0
5/1/2003 2:30,22.6,0,65.9,0,21.4,0,22.3,0,17.6,0,12.4,0,86.3,0
5/1/2003 2:45,22.4,0,65.9,0,21.3,0,22.3,0,17.7,0,12.3,0,86.6,0
5/1/2003 3:00,22.3,0,66,0,21.2,0,22.3,0,17.7,0,12.3,0,86.8,0
5/1/2003 3:15,22.1,0,66.1,0,21.2,0,22.3,0,17.8,0,12.2,0,86.6,0
5/1/2003 3:30,22,0,66.1,0,21.1,0,22.3,0,17.8,0,12.1,0,86.3,0
5/1/2003 3:45,21.8,0,66,0,21,0,22.2,0,17.9,0,12.1,0,86.1,0
5/1/2003 4:00,21.6,0,65.9,0,20.9,0,22.2,0,17.9,0,12,0,85.8,0
5/1/2003 4:15,21.5,0,65.7,0,20.8,0,22.2,0,17.9,0,12,0,76.3,0
5/1/2003 4:30,21.3,0,64.9,0,20.7,0,22.1,0,18,0,12.1,0,66.8,0
5/1/2003 4:45,21.1,0,64.4,0,20.6,0,22.1,0,18,0,12.1,0,57.3,0
5/1/2003 5:00,20.9,0,61.1,0,20.4,0,22,0,18,0,12.2,0,47.8,0
5/1/2003 5:15,20.7,0,59.2,0,20.3,0,22,0,18.1,0,12.2,0,43.3,0
5/1/2003 5:30,20.5,0,59,0,20.2,0,21.9,0,18.1,0,12.2,0,38.8,0
5/1/2003 5:45,20.4,0,58.6,0,20,0,21.9,0,17,0,12.2,0,34.3,0
5/1/2003 6:00,21.9,0,57,0,20,0,21.9,0,16.8,0,12.2,0,29.8,0
5/1/2003 6:15,22.1,0,56.7,0,19.9,0,21.9,0,16.8,0,12.5,0,28.5,0
5/1/2003 6:30,22.2,0,56,0,19.9,0,21.9,0,16.8,0,12.8,0,27.3,0
5/1/2003 6:45,22.5,0,54.7,0,19.8,0,22,0,16.6,0,13.1,0,26,0
5/1/2003 7:00,23.4,0,57.4,0,19.9,0,22,0,16.6,0,13.4,0,24.8,0
5/1/2003 7:15,24.3,0,55.7,0,20,0,22.1,0,16.7,0,13.6,0,24.8,0
5/1/2003 7:30,23.9,0,49.6,0,20.1,0,22.3,0,16.7,0,13.8,0,24.8,0
5/1/2003 7:45,25.2,0,49.7,0,20.2,0,22.4,0,16.7,0,14.1,0,24.8,0
5/1/2003 8:00,24.3,0,49.2,0,20.4,0,22.6,0,16.6,0,14.3,0,24.8,0
5/1/2003 8:15,24.3,0,49.9,0,20.6,0,22.7,0,16.7,0,14.5,0,25,0
5/1/2003 8:30,24.1,0,49.1,0,20.9,0,22.9,0,16.7,0,14.6,0,25.3,0
5/1/2003 8:45,24.5,0,50,0,21.1,0,23,0,16.7,0,14.8,0,25.5,0
5/1/2003 9:00,24.8,0,50.1,0,21.1,0,23,0,16.7,0,15,0,25.8,0
5/1/2003 9:15,24.7,0,42.7,0,20.9,0,22.7,0,16.7,0,15.2,0,25.5,0
5/1/2003 9:30,24.2,0,35.4,0,20.8,0,22.5,0,16.7,0,15.5,0,25.3,0
5/1/2003 9:45,24.4,0,39.8,0,20.7,0,22.3,0,16.7,0,15.7,0,25,0
5/1/2003 10:00,24.4,0,41.5,0,20.6,0,22.2,0,16.8,0,16,0,24.8,0
5/1/2003 10:15,24.4,0,43.1,0,20.5,0,22,0,16.8,0,15.8,0,25.3,0
5/1/2003 10:30,24.4,0,44.2,0,20.5,0,21.9,0,16.8,0,15.6,0,25.8,0
5/1/2003 10:45,24.2,0,37.7,0,20.4,0,21.7,0,16.6,0,15.5,0,26.3,0
5/1/2003 11:00,24.1,0,38.1,0,20.4,0,21.6,0,16.7,0,15.3,0,26.8,0
5/1/2003 11:15,24.1,0,40.7,0,20.4,0,21.5,0,16.7,0,15.8,0,26,0
5/1/2003 11:30,24,0,42,0,20.4,0,21.4,0,16.7,0,16.2,0,25.3,0
5/1/2003 11:45,23.9,0,42.1,0,20.4,0,21.4,0,16.8,0,16.7,0,24.5,0
5/1/2003 12:00,23.8,0,43.2,0,20.5,0,21.3,0,16.8,0,17.2,0,23.8,0
5/1/2003 12:15,23.8,0,44.3,0,20.7,0,21.2,0,16.8,0,17.4,0,23.8,0
5/1/2003 12:30,23.7,0,45.2,0,20.8,0,21.1,0,16.9,0,17.7,0,23.8,0
5/1/2003 12:45,23.8,0,48.3,0,20.9,0,21.1,0,16.9,0,17.9,0,23.8,0
5/1/2003 13:00,23.5,0,34.2,0,21.1,0,21.1,0,16.9,0,18.2,0,23.8,0
5/1/2003 13:15,23.8,0,40.6,0,21.3,0,21.1,0,16.9,0,18.5,0,23,0
5/1/2003 13:30,23.7,0,45.3,0,21.4,0,21.1,0,16.9,0,18.7,0,22.3,0
5/1/2003 13:45,23.6,0,45.1,0,21.3,0,21.1,0,16.9,0,19,0,21.5,0
5/1/2003 14:00,23.5,0,41.3,0,21.2,0,21,0,16.9,0,19.3,0,20.8,0
5/1/2003 14:15,23.5,0,42.1,0,21.1,0,21,0,16.9,0,18.8,0,24.3,0
5/1/2003 14:30,23.5,0,43.1,0,21.1,0,21,0,17,0,18.4,0,27.8,0
5/1/2003 14:45,23.6,0,43.9,0,21.1,0,21,0,16.8,0,17.9,0,31.3,0
5/1/2003 15:00,23.5,0,43,0,21.1,0,20.9,0,16.8,0,17.5,0,34.8,0
5/1/2003 15:15,23.5,0,42.2,0,21.2,0,21,0,16.8,0,17.4,0,34.8,0
5/1/2003 15:30,23.5,0,42.8,0,21.2,0,21,0,16.8,0,17.2,0,34.8,0
5/1/2003 15:45,23.6,0,43.4,0,21.2,0,21,0,16.9,0,17.1,0,34.8,0
5/1/2003 16:00,23.8,0,46,0,21.2,0,21,0,16.9,0,17,0,34.8,0
5/1/2003 16:15,23.5,0,38.5,0,21.2,0,21.1,0,16.9,0,16.7,0,35.8,0
5/1/2003 16:30,23.6,0,39.5,0,21.3,0,21.1,0,17,0,16.4,0,36.8,0
5/1/2003 16:45,23.6,0,41,0,21.3,0,21,0,16.8,0,16.2,0,37.8,0
5/1/2003 17:00,23.6,0,42.3,0,21.2,0,20.8,0,16.8,0,15.9,0,38.8,0
5/1/2003 17:15,23.6,0,43.5,0,21.2,0,20.8,0,16.9,0,15.6,0,39.5,0
5/1/2003 17:30,23.5,0,44.1,0,21.2,0,20.8,0,16.9,0,15.2,0,40.3,0
5/1/2003 17:45,23.4,0,44.4,0,21.2,0,20.9,0,16.9,0,14.9,0,41,0
5/1/2003 18:00,23.3,0,45.8,0,21.1,0,20.9,0,17,0,14.6,0,41.8,0
5/1/2003 18:15,23.1,0,43.5,0,20.9,0,20.9,0,17,0,14.4,0,43.3,0
5/1/2003 18:30,23.2,0,57.9,0,20.7,0,20.9,0,17.1,0,14.3,0,44.8,0
5/1/2003 18:45,23.2,0,61.8,0,20.4,0,20.9,0,17.1,0,14.1,0,46.3,0
5/1/2003 19:00,23.1,0,48.8,0,20.2,0,20.9,0,17.2,0,14,0,47.8,0
5/1/2003 19:15,23,0,50.1,0,20,0,20.9,0,17,0,13.9,0,48.8,0
5/1/2003 19:30,23,0,51.9,0,19.8,0,20.9,0,17,0,13.8,0,49.8,0
5/1/2003 19:45,23.3,0,73.6,0,19.7,0,20.8,0,17.1,0,13.7,0,50.8,0
5/1/2003 20:00,23.3,0,61.9,0,19.7,0,20.8,0,17.1,0,13.6,0,51.8,0
5/1/2003 20:15,23.4,0,66,0,20,0,20.7,0,17.2,0,13.5,0,53.3,0
5/1/2003 20:30,23.5,0,65.8,0,20.1,0,20.6,0,17.2,0,13.4,0,54.8,0
5/1/2003 20:45,23.5,0,65.2,0,20.2,0,20.6,0,17.2,0,13.4,0,56.3,0
5/1/2003 21:00,23.3,0,60.8,0,20.4,0,20.5,0,17.3,0,13.3,0,57.8,0
5/1/2003 21:15,23.3,0,60.5,0,20.4,0,20.5,0,17.3,0,13.3,0,57.8,0
5/1/2003 21:30,23.2,0,60.2,0,20.4,0,20.5,0,17.3,0,13.2,0,57.8,0
5/1/2003 21:45,23.1,0,60.1,0,20.3,0,20.5,0,17.4,0,13.2,0,57.8,0
5/1/2003 22:00,23,0,60.2,0,20.3,0,20.4,0,17.4,0,13.2,0,57.8,0
5/1/2003 22:15,22.9,0,60.1,0,20.2,0,20.4,0,17.4,0,13.1,0,59.3,0
5/1/2003 22:30,22.8,0,59.8,0,20.1,0,20.4,0,17.5,0,13,0,60.8,0
5/1/2003 22:45,22.8,0,60.3,0,20.1,0,20.4,0,17.5,0,12.9,0,62.3,0
5/1/2003 23:00,22.7,0,63.2,0,20,0,20.4,0,17.6,0,12.8,0,63.8,0
5/1/2003 23:15,22.6,0,64.9,0,20,0,20.4,0,17.6,0,13,0,63.5,0
5/1/2003 23:30,22.5,0,59.3,0,19.9,0,20.4,0,17.1,0,13.2,0,63.3,0
5/1/2003 23:45,22.3,0,59.8,0,19.9,0,20.3,0,17.2,0,13.5,0,63,0
5/2/2003 0:00,22.2,0,60.5,0,19.8,0,20.3,0,17.2,0,13.7,0,62.8,0
5/2/2003 0:15,22.3,0,59.1,0,19.8,0,20.3,0,16.9,0,13.4,0,63.8,0
5/2/2003 0:30,22.3,0,58.8,0,19.7,0,20.2,0,16.9,0,13.2,0,64.8,0
5/2/2003 0:45,22.2,0,58.2,0,19.7,0,20.2,0,16.9,0,12.9,0,65.8,0
5/2/2003 1:00,22.2,0,58.4,0,19.6,0,20.1,0,17,0,12.7,0,66.8,0
5/2/2003 1:15,22.1,0,58.8,0,19.6,0,20.1,0,17,0,12.8,0,67.8,0
5/2/2003 1:30,21.5,0,56.5,0,19.5,0,20.1,0,16.9,0,13,0,68.8,0
5/2/2003 1:45,21.2,0,55.1,0,19.5,0,20.1,0,16.9,0,13.1,0,69.8,0
5/2/2003 2:00,21,0,54.8,0,19.5,0,20,0,16.9,0,13.3,0,70.8,0
5/2/2003 2:15,20.8,0,54.7,0,19.4,0,20,0,16.9,0,13.5,0,71.1,0
5/2/2003 2:30,20.6,0,54.6,0,19.4,0,20,0,17,0,13.6,0,71.3,0
5/2/2003 2:45,20.4,0,54.6,0,19.3,0,20,0,17,0,13.8,0,71.6,0
5/2/2003 3:00,20.2,0,55.1,0,19.3,0,20,0,16.7,0,14,0,71.8,0
5/2/2003 3:15,20,0,55.4,0,19.2,0,19.9,0,16.7,0,14.1,0,71.3,0
5/2/2003 3:30,19.9,0,55.5,0,19.2,0,19.9,0,16.7,0,14.3,0,70.8,0
5/2/2003 3:45,19.8,0,55.7,0,19.1,0,19.8,0,16.8,0,14.4,0,70.3,0
5/2/2003 4:00,19.7,0,55.8,0,19.1,0,19.8,0,16.8,0,14.6,0,69.8,0
5/2/2003 4:15,19.5,0,55.8,0,19,0,19.8,0,16.8,0,14.6,0,69.3,0
5/2/2003 4:30,19.4,0,55.8,0,19,0,19.7,0,16.8,0,14.6,0,68.8,0
5/2/2003 4:45,19.3,0,55.9,0,18.9,0,19.7,0,16.9,0,14.7,0,68.3,0
5/2/2003 5:00,19.2,0,55.9,0,18.8,0,19.6,0,16.9,0,14.7,0,67.8,0
5/2/2003 5:15,19.1,0,55.9,0,18.8,0,19.6,0,16.9,0,14.7,0,68.8,0
5/2/2003 5:30,19,0,56,0,18.7,0,19.6,0,16.9,0,14.8,0,69.8,0
5/2/2003 5:45,18.9,0,56.1,0,18.7,0,19.6,0,17,0,14.8,0,70.8,0
5/2/2003 6:00,20.5,0,54.3,0,18.7,0,19.5,0,17,0,14.9,0,71.8,0
5/2/2003 6:15,20.6,0,56.1,0,18.6,0,19.6,0,17,0,15.4,0,70.1,0
5/2/2003 6:30,21,0,57.3,0,18.5,0,19.6,0,17,0,15.8,0,68.3,0
5/2/2003 6:45,21.5,0,58.9,0,18.5,0,19.6,0,16.5,0,16.3,0,66.6,0
5/2/2003 7:00,21.7,0,57,0,18.5,0,19.7,0,16.5,0,16.8,0,64.8,0
5/2/2003 7:15,21.7,0,55.5,0,18.5,0,19.9,0,16.9,0,16.8,0,65.6,0
5/2/2003 7:30,22.5,0,53.5,0,18.5,0,20.1,0,16.9,0,16.9,0,66.3,0
5/2/2003 7:45,23.1,0,51.8,0,18.6,0,20.3,0,16.9,0,16.9,0,67.1,0
5/2/2003 8:00,23,0,51.6,0,18.7,0,20.6,0,17,0,17,0,67.8,0
5/2/2003 8:15,22.8,0,51.2,0,18.8,0,20.7,0,17,0,17,0,67.6,0
5/2/2003 8:30,23.1,0,53,0,18.9,0,20.9,0,17,0,17.1,0,67.3,0
5/2/2003 8:45,23.2,0,52.2,0,19.1,0,21.1,0,17,0,17.1,0,67.1,0
5/2/2003 9:00,23.2,0,52.5,0,19.5,0,21.2,0,17,0,17.2,0,66.8,0
5/2/2003 9:15,23.3,0,52.2,0,19.7,0,21.4,0,17,0,17.4,0,66.3,0
5/2/2003 9:30,23.5,0,52.3,0,20.1,0,21.6,0,17,0,17.6,0,65.8,0
5/2/2003 9:45,23.5,0,51.8,0,20.3,0,21.7,0,16.9,0,17.8,0,65.3,0
5/2/2003 10:00,23.3,0,51.7,0,20.6,0,21.7,0,16.9,0,18,0,64.8,0
5/2/2003 10:15,23.4,0,52.1,0,20.8,0,21.8,0,16.9,0,18.4,0,64.1,0
5/2/2003 10:30,23.4,0,51.6,0,20.8,0,21.8,0,16.9,0,18.7,0,63.3,0
5/2/2003 10:45,23.3,0,51.9,0,21,0,21.8,0,17,0,19.1,0,62.6,0
5/2/2003 11:00,23.3,0,52.2,0,21.1,0,21.8,0,17,0,19.5,0,61.8,0
5/2/2003 11:15,23.3,0,52.1,0,21.3,0,21.9,0,17,0,19.4,0,61.8,0
5/2/2003 11:30,23.3,0,52.8,0,21.4,0,21.9,0,17,0,19.2,0,61.8,0
5/2/2003 11:45,23.3,0,53,0,21.5,0,22,0,17,0,19.1,0,61.8,0
5/2/2003 12:00,23.3,0,52.8,0,21.6,0,22,0,17.1,0,19,0,61.8,0
5/2/2003 12:15,23.5,0,52.8,0,21.7,0,22.1,0,17.1,0,19,0,62.3,0
5/2/2003 12:30,23.6,0,55.4,0,21.8,0,22.2,0,17.2,0,19.1,0,62.8,0
5/2/2003 12:45,23.6,0,54.4,0,22,0,22.3,0,16.9,0,19.1,0,63.3,0
5/2/2003 13:00,23.5,0,53.2,0,22.1,0,22.3,0,16.9,0,19.2,0,63.8,0
5/2/2003 13:15,23.5,0,52.7,0,22.2,0,22.3,0,16.9,0,19,0,65.3,0
5/2/2003 13:30,23.6,0,52.5,0,22.3,0,22.4,0,17,0,18.8,0,66.8,0
5/2/2003 13:45,23.6,0,52.3,0,22.3,0,22.5,0,17,0,18.7,0,68.3,0
5/2/2003 14:00,23.6,0,52.8,0,22.3,0,22.5,0,17,0,18.5,0,69.8,0
5/2/2003 14:15,23.6,0,52.5,0,22.4,0,22.6,0,17.1,0,18.7,0,69.1,0
5/2/2003 14:30,23.6,0,52.7,0,22.4,0,22.7,0,17.2,0,19,0,68.3,0
5/2/2003 14:45,23.6,0,52.7,0,22.6,0,22.7,0,16.9,0,19.2,0,67.6,0
5/2/2003 15:00,23.6,0,52.7,0,22.7,0,22.8,0,16.9,0,19.5,0,66.8,0
5/2/2003 15:15,23.6,0,53.1,0,22.8,0,22.9,0,17,0,19.6,0,64.8,0
5/2/2003 15:30,23.6,0,52.5,0,22.8,0,23,0,17.1,0,19.7,0,62.8,0
5/2/2003 15:45,23.6,0,52.3,0,22.8,0,23,0,17.1,0,19.8,0,60.8,0
5/2/2003 16:00,23.6,0,53.6,0,22.8,0,23,0,17.2,0,19.9,0,58.8,0
5/2/2003 16:15,23.6,0,53,0,22.8,0,23,0,17.2,0,19.7,0,59.5,0
5/2/2003 16:30,23.6,0,54.7,0,22.8,0,23.1,0,17.3,0,19.6,0,60.3,0
5/2/2003 16:45,23.8,0,51.8,0,22.9,0,23.1,0,17.3,0,19.4,0,61,0
5/2/2003 17:00,23.7,0,52.5,0,22.9,0,23.1,0,17.4,0,19.3,0,61.8,0
5/2/2003 17:15,23.6,0,53.6,0,22.8,0,23.2,0,17.4,0,19.1,0,62.8,0
5/2/2003 17:30,23.6,0,53.2,0,22.8,0,23.2,0,17.5,0,18.9,0,63.8,0
5/2/2003 17:45,23.5,0,53.1,0,22.8,0,23.2,0,17.6,0,18.8,0,64.8,0
5/2/2003 18:00,23.3,0,52.9,0,22.7,0,23.2,0,17.6,0,18.6,0,65.8,0
5/2/2003 18:15,23.2,0,53.5,0,22.6,0,23.1,0,17.7,0,18.5,0,66.8,0
5/2/2003 18:30,23.1,0,53.6,0,22.5,0,23.1,0,17.7,0,18.3,0,67.8,0
5/2/2003 18:45,23.1,0,55.1,0,22.5,0,23,0,17.8,0,18.2,0,68.8,0
5/2/2003 19:00,23.3,0,63.8,0,22.6,0,22.9,0,17.9,0,18.1,0,69.8,0
5/2/2003 19:15,23.5,0,67.9,0,22.8,0,22.9,0,17.9,0,18.1,0,70.6,0
5/2/2003 19:30,23.5,0,63.9,0,22.9,0,22.9,0,18,0,18,0,71.3,0
5/2/2003 19:45,23.4,0,60,0,23,0,22.8,0,17.6,0,18,0,72.1,0
5/2/2003 20:00,23.4,0,60.4,0,23.1,0,22.7,0,17.7,0,18,0,72.8,0
5/2/2003 20:15,23.4,0,62.8,0,23.2,0,22.7,0,17.3,0,17.9,0,73.6,0
5/2/2003 20:30,23.5,0,61.8,0,23.1,0,22.7,0,17.3,0,17.9,0,74.3,0
5/2/2003 20:45,23.6,0,63.8,0,23,0,22.6,0,17.3,0,17.8,0,75.1,0
5/2/2003 21:00,23.7,0,63,0,23,0,22.6,0,17.4,0,17.8,0,75.8,0
5/2/2003 21:15,23.6,0,62.8,0,23,0,22.6,0,17.4,0,17.7,0,76.1,0
5/2/2003 21:30,23.6,0,61.9,0,22.9,0,22.6,0,17.5,0,17.6,0,76.3,0
5/2/2003 21:45,23.6,0,62.5,0,22.8,0,22.5,0,17.5,0,17.6,0,76.6,0
5/2/2003 22:00,23.6,0,64.4,0,22.7,0,22.5,0,17.6,0,17.5,0,76.8,0
5/2/2003 22:15,23.5,0,68.1,0,22.6,0,22.4,0,17.4,0,17.5,0,77.6,0
5/2/2003 22:30,23.6,0,66.1,0,22.5,0,22.4,0,17.4,0,17.5,0,78.3,0
5/2/2003 22:45,23.7,0,73.1,0,22.4,0,22.4,0,17.5,0,17.6,0,79.1,0
5/2/2003 23:00,23.8,0,73.9,0,22.2,0,22.3,0,17.5,0,17.6,0,79.8,0
5/2/2003 23:15,23.9,0,70.1,0,22.2,0,22.3,0,17.6,0,17.6,0,80.1,0
5/2/2003 23:30,23.9,0,69.1,0,22.1,0,22.3,0,17.6,0,17.6,0,80.3,0
5/2/2003 23:45,24.1,0,71.2,0,22.1,0,22.3,0,17.6,0,17.6,0,80.6,0
5/3/2003 0:00,24.2,0,69.3,0,22,0,22.2,0,17.7,0,17.6,0,80.8,0
5/3/2003 0:15,24.2,0,69,0,22,0,22.2,0,17.7,0,17.6,0,81.6,0
5/3/2003 0:30,24.2,0,68.4,0,21.9,0,22.2,0,17.7,0,17.6,0,82.3,0
5/3/2003 0:45,24.3,0,69.2,0,21.9,0,22.2,0,17.4,0,17.6,0,83.1,0
5/3/2003 1:00,24,0,64.2,0,21.9,0,22.2,0,17.5,0,17.6,0,83.8,0
5/3/2003 1:15,23.7,0,63.2,0,21.8,0,22.2,0,17.5,0,17.6,0,83.6,0
5/3/2003 1:30,23.5,0,62.7,0,21.8,0,22.2,0,17.6,0,17.6,0,83.3,0
5/3/2003 1:45,23.3,0,62.2,0,21.7,0,22.2,0,17.6,0,17.6,0,83.1,0
5/3/2003 2:00,23.2,0,61.9,0,21.7,0,22.3,0,17.6,0,17.6,0,82.8,0
5/3/2003 2:15,23,0,61.7,0,21.6,0,22.3,0,17.7,0,17.6,0,83.6,0
5/3/2003 2:30,22.9,0,61.6,0,21.5,0,22.3,0,17.7,0,17.6,0,84.3,0
5/3/2003 2:45,22.8,0,61.6,0,21.5,0,22.4,0,17.8,0,17.7,0,85.1,0
5/3/2003 3:00,22.7,0,61.6,0,21.5,0,22.4,0,17.8,0,17.7,0,85.8,0
5/3/2003 3:15,22.5,0,61.9,0,21.4,0,22.4,0,17.2,0,17.6,0,86.1,0
5/3/2003 3:30,22.7,0,62.4,0,21.4,0,22.4,0,17.3,0,17.4,0,86.3,0
5/3/2003 3:45,22.6,0,62.7,0,21.3,0,22.4,0,17.3,0,17.3,0,86.6,0
5/3/2003 4:00,22.7,0,63.2,0,21.3,0,22.4,0,17.3,0,17.2,0,86.8,0
5/3/2003 4:15,22.7,0,63.7,0,21.3,0,22.4,0,17.4,0,17.3,0,85.1,0
5/3/2003 4:30,22.6,0,64,0,21.2,0,22.4,0,17.4,0,17.3,0,83.3,0
5/3/2003 4:45,22.6,0,64.1,0,21.2,0,22.4,0,17.5,0,17.4,0,81.6,0
5/3/2003 5:00,22.6,0,64.4,0,21.2,0,22.3,0,17.5,0,17.5,0,79.8,0
5/3/2003 5:15,22.5,0,64.8,0,21.1,0,22.3,0,17.6,0,17.5,0,79.6,0
5/3/2003 5:30,22.5,0,65.3,0,21.2,0,22.3,0,17.6,0,17.4,0,79.3,0
5/3/2003 5:45,22.5,0,65.1,0,21.2,0,22.3,0,17.7,0,17.4,0,79.1,0
5/3/2003 6:00,22.5,0,65.5,0,21.2,0,22.2,0,17.7,0,17.4,0,78.8,0
5/3/2003 6:15,22.5,0,65.3,0,21.2,0,22.2,0,17.8,0,17.5,0,78.6,0
5/3/2003 6:30,22.4,0,65.3,0,21.2,0,22.2,0,17.8,0,17.6,0,78.3,0
5/3/2003 6:45,22.4,0,66.2,0,21.1,0,22.1,0,17.9,0,17.7,0,78.1,0
5/3/2003 7:00,22.4,0,66.3,0,21.1,0,22.1,0,17.9,0,17.8,0,77.8,0
5/3/2003 7:15,22.4,0,67.1,0,21.1,0,22.1,0,18,0,18.1,0,77.6,0
5/3/2003 7:30,22.4,0,67.5,0,21.1,0,22.1,0,18,0,18.5,0,77.3,0
5/3/2003 7:45,22.4,0,67.9,0,21.1,0,22.1,0,18.1,0,18.8,0,77.1,0
5/3/2003 8:00,22.3,0,67.6,0,21.1,0,22.1,0,17.3,0,19.2,0,76.8,0
5/3/2003 8:15,22.4,0,67.1,0,21.2,0,22.1,0,17.3,0,19.4,0,75.8,0
5/3/2003 8:30,22.4,0,67.7,0,21.2,0,22,0,17.4,0,19.5,0,74.8,0
5/3/2003 8:45,22.6,0,68.1,0,21.3,0,22,0,17.3,0,19.7,0,73.8,0
5/3/2003 9:00,22.7,0,70.3,0,21.3,0,22,0,17.2,0,19.9,0,72.8,0
5/3/2003 9:15,22.9,0,66.8,0,21.4,0,22,0,17.3,0,20.4,0,70.1,0
5/3/2003 9:30,23.1,0,66.1,0,21.5,0,22.1,0,17.3,0,20.9,0,67.3,0
5/3/2003 9:45,23.1,0,64.3,0,21.6,0,22.1,0,17.3,0,21.4,0,64.6,0
5/3/2003 10:00,23.2,0,63.5,0,21.7,0,22.1,0,17.3,0,21.9,0,61.8,0
5/3/2003 10:15,23.4,0,62.6,0,21.9,0,22.1,0,17.3,0,21.8,0,62.3,0
5/3/2003 10:30,23.5,0,60.8,0,22.1,0,22.2,0,17.4,0,21.7,0,62.8,0
5/3/2003 10:45,23.7,0,61.4,0,22.3,0,22.4,0,17.4,0,21.7,0,63.3,0
5/3/2003 11:00,23.8,0,60.6,0,22.5,0,22.5,0,17.3,0,21.6,0,63.8,0
5/3/2003 11:15,24,0,59.6,0,22.7,0,22.6,0,17.3,0,21.9,0,63.3,0
5/3/2003 11:30,24.3,0,59.6,0,22.8,0,22.8,0,17.4,0,22.3,0,62.8,0
5/3/2003 11:45,24.5,0,60,0,23,0,22.9,0,17.4,0,22.6,0,62.3,0
5/3/2003 12:00,24.5,0,59.1,0,23.2,0,23.1,0,17.5,0,23,0,61.8,0
5/3/2003 12:15,24.7,0,59,0,23.4,0,23.2,0,17.3,0,22.9,0,63.6,0
5/3/2003 12:30,24.8,0,58.2,0,23.7,0,23.4,0,17.4,0,22.7,0,65.3,0
5/3/2003 12:45,24.8,0,57.9,0,23.9,0,23.5,0,17.4,0,22.6,0,67.1,0
5/3/2003 13:00,24.9,0,57.6,0,24.1,0,23.7,0,17.5,0,22.5,0,68.8,0
5/3/2003 13:15,24.9,0,57.5,0,24.3,0,23.8,0,17.5,0,22.7,0,67.8,0
5/3/2003 13:30,24.9,0,57,0,24.4,0,24,0,17.6,0,22.8,0,66.8,0
5/3/2003 13:45,25,0,56.7,0,24.5,0,24.1,0,17.7,0,23,0,65.8,0
5/3/2003 14:00,25.2,0,58.4,0,24.6,0,24.2,0,17.7,0,23.2,0,64.8,0
5/3/2003 14:15,25.4,0,59.3,0,24.7,0,24.3,0,17.8,0,23.1,0,65.8,0
5/3/2003 14:30,25.4,0,57.9,0,24.7,0,24.4,0,17.9,0,23.1,0,66.8,0
5/3/2003 14:45,25.5,0,57.9,0,24.8,0,24.5,0,17.9,0,23,0,67.8,0
5/3/2003 15:00,25.6,0,58,0,24.9,0,24.6,0,17.5,0,23,0,68.8,0
5/3/2003 15:15,25.8,0,57.9,0,24.9,0,24.7,0,17.3,0,22.9,0,69.3,0
5/3/2003 15:30,26,0,58.4,0,25,0,24.7,0,17.4,0,22.7,0,69.8,0
5/3/2003 15:45,26.1,0,58.6,0,25,0,24.8,0,17.4,0,22.6,0,70.3,0
5/3/2003 16:00,26.3,0,58.8,0,25,0,24.9,0,17.5,0,22.5,0,70.8,0
5/3/2003 16:15,26.3,0,58.7,0,25,0,25,0,17.5,0,22.3,0,71.6,0
5/3/2003 16:30,26.3,0,58.3,0,25,0,25.1,0,17.5,0,22.1,0,72.3,0
5/3/2003 16:45,26.4,0,58.5,0,24.9,0,25.2,0,17.6,0,22,0,73.1,0
5/3/2003 17:00,26.4,0,59.3,0,24.9,0,25.3,0,17.6,0,21.8,0,73.8,0
5/3/2003 17:15,26.3,0,59.4,0,25,0,25.4,0,17.7,0,21.6,0,75.1,0
5/3/2003 17:30,26.3,0,59.5,0,25,0,25.5,0,17.8,0,21.4,0,76.3,0
5/3/2003 17:45,26.2,0,59.6,0,25,0,25.6,0,17.9,0,21.2,0,77.6,0
5/3/2003 18:00,26.3,0,63.1,0,25,0,25.6,0,18,0,21,0,78.8,0
5/3/2003 18:15,26.4,0,64.7,0,25,0,25.6,0,18,0,20.7,0,80.3,0
5/3/2003 18:30,26.5,0,66.9,0,25,0,25.6,0,18.1,0,20.4,0,81.8,0
5/3/2003 18:45,26.7,0,70.5,0,25,0,25.5,0,17.7,0,20.2,0,83.3,0
5/3/2003 19:00,26.6,0,68.6,0,24.9,0,25.5,0,17.7,0,19.9,0,84.8,0
5/3/2003 19:15,27.1,0,75.1,0,24.9,0,25.5,0,17.8,0,19.8,0,85.6,0
5/3/2003 19:30,27.2,0,72.9,0,24.9,0,25.4,0,17.6,0,19.7,0,86.3,0
5/3/2003 19:45,27.2,0,73.6,0,24.9,0,25.4,0,17.6,0,19.7,0,87.1,0
5/3/2003 20:00,27.2,0,73.1,0,24.8,0,25.4,0,17.7,0,19.6,0,87.8,0
5/3/2003 20:15,27.2,0,72.6,0,24.8,0,25.3,0,17.8,0,19.5,0,87.8,0
5/3/2003 20:30,27.1,0,72.1,0,24.7,0,25.2,0,17.6,0,19.4,0,87.8,0
5/3/2003 20:45,27.1,0,71.9,0,24.7,0,25.2,0,17.7,0,19.3,0,87.8,0
5/3/2003 21:00,27,0,70.8,0,24.6,0,25.2,0,17.8,0,19.2,0,87.8,0
5/3/2003 21:15,26.9,0,70.4,0,24.6,0,25.2,0,17.9,0,19.1,0,88.3,0
5/3/2003 21:30,26.8,0,68.8,0,24.5,0,25.2,0,17.5,0,19.1,0,88.8,0
5/3/2003 21:45,26.8,0,70.9,0,24.5,0,25.2,0,17.6,0,19,0,89.3,0
5/3/2003 22:00,26.7,0,65.4,0,24.4,0,25.3,0,17.6,0,19,0,89.8,0
5/3/2003 22:15,26.4,0,63.1,0,24.4,0,25.3,0,17.7,0,18.7,0,91.1,0
5/3/2003 22:30,26.3,0,62,0,24.4,0,25.3,0,17.8,0,18.3,0,92.3,0
5/3/2003 22:45,26.2,0,62.1,0,24.4,0,25.3,0,17.9,0,18,0,93.6,0
5/3/2003 23:00,26.2,0,63.5,0,24.3,0,25.3,0,17.9,0,17.7,0,94.8,0
5/3/2003 23:15,26.1,0,63.9,0,24.3,0,25.2,0,18,0,17.6,0,95.3,0
5/3/2003 23:30,26.1,0,65.7,0,24.3,0,25.2,0,18.1,0,17.6,0,95.8,0
5/3/2003 23:45,26.1,0,66.2,0,24.2,0,25.2,0,18.2,0,17.5,0,96.3,0
5/4/2003 0:00,26,0,66.8,0,24.1,0,25.1,0,18.2,0,17.5,0,96.8,0
5/4/2003 0:15,26,0,67.2,0,24.1,0,25.1,0,18.3,0,17.4,0,97.1,0
5/4/2003 0:30,25.9,0,67.4,0,24,0,25,0,18.4,0,17.4,0,97.3,0
5/4/2003 0:45,25.9,0,67.6,0,24,0,25,0,18.4,0,17.3,0,97.6,0
5/4/2003 1:00,25.7,0,66.6,0,23.9,0,25,0,18,0,17.3,0,97.8,0
5/4/2003 1:15,25.6,0,65.7,0,23.9,0,25,0,18,0,17.3,0,97.8,0
5/4/2003 1:30,25.4,0,65.1,0,23.8,0,24.9,0,18.1,0,17.3,0,97.8,0
5/4/2003 1:45,25.3,0,65,0,23.8,0,24.9,0,18.1,0,17.3,0,97.8,0
5/4/2003 2:00,25.2,0,64.9,0,23.7,0,24.9,0,18.2,0,17.3,0,97.8,0
5/4/2003 2:15,25,0,64.9,0,23.7,0,24.9,0,18.3,0,17.3,0,97.6,0
5/4/2003 2:30,24.9,0,64.8,0,23.6,0,24.9,0,18.3,0,17.4,0,97.3,0
5/4/2003 2:45,24.8,0,64.7,0,23.5,0,24.9,0,18.4,0,17.4,0,97.1,0
5/4/2003 3:00,24.7,0,64.7,0,23.5,0,24.9,0,18.4,0,17.5,0,96.8,0
5/4/2003 3:15,24.5,0,63.4,0,23.4,0,24.8,0,18.5,0,17.5,0,96.6,0
5/4/2003 3:30,24.4,0,62.8,0,23.4,0,24.8,0,18.6,0,17.5,0,96.3,0
5/4/2003 3:45,24.2,0,62.7,0,23.4,0,24.8,0,18.6,0,17.5,0,96.1,0
5/4/2003 4:00,24.1,0,62.7,0,23.3,0,24.8,0,18.7,0,17.5,0,95.8,0
5/4/2003 4:15,24,0,62.8,0,23.3,0,24.8,0,18.7,0,17.5,0,95.1,0
5/4/2003 4:30,23.9,0,62.9,0,23.2,0,24.8,0,18.8,0,17.6,0,94.3,0
5/4/2003 4:45,23.8,0,63,0,23.2,0,24.8,0,18.8,0,17.6,0,93.6,0
5/4/2003 5:00,23.7,0,63.1,0,23.1,0,24.8,0,18.9,0,17.7,0,92.8,0
5/4/2003 5:15,23.7,0,63.2,0,23.1,0,24.7,0,18.9,0,17.7,0,92.6,0
5/4/2003 5:30,23.6,0,63.3,0,23.1,0,24.7,0,19,0,17.8,0,92.3,0
5/4/2003 5:45,23.5,0,63.9,0,23,0,24.7,0,19.1,0,17.8,0,92.1,0
5/4/2003 6:00,23.6,0,64.4,0,23,0,24.7,0,19.1,0,17.9,0,91.8,0
5/4/2003 6:15,23.5,0,65.2,0,23,0,24.6,0,19.2,0,17.9,0,91.3,0
5/4/2003 6:30,23.5,0,65.6,0,23.1,0,24.6,0,19.2,0,18,0,90.8,0
5/4/2003 6:45,23.5,0,66.1,0,23.1,0,24.5,0,19.2,0,18,0,90.3,0
5/4/2003 7:00,23.6,0,66.4,0,23.1,0,24.4,0,19.3,0,18.1,0,89.8,0
5/4/2003 7:15,23.6,0,66.4,0,23.1,0,24.4,0,19.4,0,18.3,0,88.8,0
5/4/2003 7:30,23.6,0,67,0,23.2,0,24.4,0,18.1,0,18.6,0,87.8,0
5/4/2003 7:45,23.6,0,68.2,0,23.2,0,24.4,0,18.1,0,18.8,0,86.8,0
5/4/2003 8:00,23.7,0,68.4,0,23.3,0,24.4,0,18.2,0,19.1,0,85.8,0
5/4/2003 8:15,24.2,0,67.2,0,23.5,0,24.4,0,18.2,0,19.2,0,85.6,0
5/4/2003 8:30,24.6,0,65.9,0,23.6,0,24.6,0,18.3,0,19.2,0,85.3,0
5/4/2003 8:45,24.6,0,65.6,0,23.7,0,24.7,0,18.4,0,19.3,0,85.1,0
5/4/2003 9:00,25.1,0,64.5,0,23.9,0,24.9,0,17.9,0,19.4,0,84.8,0
5/4/2003 9:15,25.9,0,64.2,0,24,0,25.1,0,17.7,0,19.7,0,83.6,0
5/4/2003 9:30,26.2,0,64.7,0,24.2,0,25.2,0,17.7,0,20,0,82.3,0
5/4/2003 9:45,26.6,0,64.5,0,24.4,0,25.3,0,17.7,0,20.4,0,81.1,0
5/4/2003 10:00,26.3,0,62.8,0,24.7,0,25.4,0,17.7,0,20.7,0,79.8,0
5/4/2003 10:15,26.3,0,62,0,24.9,0,25.4,0,17.6,0,21.2,0,76.3,0
5/4/2003 10:30,26.4,0,61.2,0,25,0,25.5,0,17.6,0,21.8,0,72.8,0
5/4/2003 10:45,26.5,0,60.4,0,25.3,0,25.6,0,17.6,0,22.3,0,69.3,0
5/4/2003 11:00,26.7,0,60.4,0,25.4,0,25.7,0,17.7,0,22.9,0,65.8,0
5/4/2003 11:15,26.9,0,59.9,0,25.6,0,25.9,0,17.6,0,22.4,0,68.6,0
5/4/2003 11:30,26.9,0,58.7,0,25.8,0,26,0,17.7,0,21.9,0,71.3,0
5/4/2003 11:45,27,0,56.8,0,25.9,0,26.1,0,17.7,0,21.4,0,74.1,0
5/4/2003 12:00,27.1,0,53.5,0,26,0,26.2,0,17.8,0,20.9,0,76.8,0
5/4/2003 12:15,27.1,0,50.6,0,26.1,0,26.3,0,17.8,0,21.3,0,74.6,0
5/4/2003 12:30,27.2,0,49.2,0,26.2,0,26.3,0,17.9,0,21.6,0,72.3,0
5/4/2003 12:45,27.2,0,49.6,0,26.3,0,26.4,0,18,0,22,0,70.1,0
5/4/2003 13:00,27.7,0,58.2,0,26.4,0,26.5,0,18.1,0,22.4,0,67.8,0
5/4/2003 13:15,27.7,0,69.6,0,26.4,0,26.5,0,18.1,0,22.2,0,67.8,0
5/4/2003 13:30,27.9,0,59.1,0,26.4,0,26.5,0,18.2,0,22.1,0,67.8,0
5/4/2003 13:45,27.9,0,54.9,0,26.3,0,26.5,0,18.3,0,21.9,0,67.8,0
5/4/2003 14:00,27.9,0,54.6,0,26.2,0,26.5,0,18.4,0,21.8,0,67.8,0
5/4/2003 14:15,28,0,53.4,0,26.3,0,26.5,0,18.5,0,21.8,0,69.3,0
5/4/2003 14:30,28,0,51.5,0,26.3,0,26.6,0,18.1,0,21.8,0,70.8,0
5/4/2003 14:45,28.4,0,55,0,26.5,0,26.6,0,18.2,0,21.8,0,72.3,0
5/4/2003 15:00,28.3,0,50,0,26.5,0,26.7,0,18.3,0,21.8,0,73.8,0
5/4/2003 15:15,28.2,0,45.4,0,26.6,0,26.7,0,17.7,0,21.9,0,74.1,0
5/4/2003 15:30,28,0,46.9,0,26.7,0,26.7,0,17.8,0,21.9,0,74.3,0
5/4/2003 15:45,28,0,48.2,0,26.8,0,26.8,0,17.8,0,22,0,74.6,0
5/4/2003 16:00,28,0,50,0,26.8,0,26.8,0,17.8,0,22.1,0,74.8,0
5/4/2003 16:15,27.9,0,49.3,0,26.9,0,26.8,0,17.9,0,21.9,0,75.6,0
5/4/2003 16:30,28,0,49.7,0,26.8,0,26.9,0,17.9,0,21.7,0,76.3,0
5/4/2003 16:45,28.1,0,51.3,0,26.9,0,27,0,18.2,0,21.5,0,77.1,0
5/4/2003 17:00,28.1,0,50.3,0,26.8,0,27,0,17.8,0,21.3,0,77.8,0
5/4/2003 17:15,28.2,0,50.8,0,26.8,0,27.1,0,17.8,0,21.2,0,78.6,0
5/4/2003 17:30,28.1,0,51.9,0,26.9,0,27.2,0,17.9,0,21.1,0,79.3,0
5/4/2003 17:45,27.8,0,52.8,0,26.7,0,27.2,0,18,0,21.1,0,80.1,0
5/4/2003 18:00,27.6,0,53.9,0,26.6,0,27.2,0,18.1,0,21,0,80.8,0
5/4/2003 18:15,27.4,0,55.3,0,26.5,0,27.2,0,18.2,0,21,0,81.3,0
5/4/2003 18:30,27.2,0,56.5,0,26.6,0,27.2,0,18.2,0,20.9,0,81.8,0
5/4/2003 18:45,26.9,0,57.7,0,26.5,0,27.2,0,18.3,0,20.9,0,82.3,0
5/4/2003 19:00,26.8,0,58.4,0,26.4,0,27.1,0,18.4,0,20.9,0,82.8,0
5/4/2003 19:15,26.6,0,58.5,0,26.4,0,27,0,18.5,0,21,0,81.8,0
5/4/2003 19:30,26.7,0,58.7,0,26.4,0,26.9,0,17.9,0,21.1,0,80.8,0
5/4/2003 19:45,26.7,0,59.2,0,26.3,0,26.9,0,17.9,0,21.2,0,79.8,0
5/4/2003 20:00,26.8,0,61.8,0,26.3,0,26.8,0,18,0,21.3,0,78.8,0
5/4/2003 20:15,26.6,0,61.2,0,26.2,0,26.7,0,18.1,0,21.1,0,79.8,0
5/4/2003 20:30,26.7,0,62.6,0,26.1,0,26.7,0,18.1,0,20.9,0,80.8,0
5/4/2003 20:45,26.8,0,63.2,0,26,0,26.6,0,18.2,0,20.7,0,81.8,0
5/4/2003 21:00,26.8,0,63.8,0,26,0,26.5,0,18.3,0,20.5,0,82.8,0
5/4/2003 21:15,26.8,0,64.6,0,26,0,26.5,0,18.3,0,20.4,0,83.6,0
5/4/2003 21:30,26.8,0,64.9,0,26,0,26.4,0,18.4,0,20.3,0,84.3,0
5/4/2003 21:45,26.9,0,65.4,0,26.2,0,26.3,0,18.5,0,20.3,0,85.1,0